When you browse on this site, cookies collect data to enhance your experience and personalize the content and advertising you see.
Visit our Privacy Policy to learn more. By continuing to use the site, you agree to this use of cookies and data.
  • Em Portugal
  • Lista de países
  • Para 7 dias
  • Temperatura da água
  • Mapas de satélite
  • Mapa do tempo
  • Widgets de tempo
  • user-avatar
    Iniciar Sessão

    Previsão horária em Dobrich

    Hoje, 19 Abril, Sexta-feira

    Tempo Temperatura Precipitação Vento Pressão Humidade
    00:00 +3°C° 0 mm 2 m/s 745 mmHg 86%
    01:00 +3°C° 0 mm 2 m/s 745 mmHg 87%
    02:00 +3°C° 0 mm 2 m/s 745 mmHg 86%
    03:00 +3°C° 0 mm 2 m/s 745 mmHg 87%
    04:00 +3°C° 0 mm 2 m/s 745 mmHg 89%
    05:00 +2°C° 0 mm 3 m/s 744 mmHg 90%
    06:00 +3°C° 0 mm 3 m/s 744 mmHg 83%
    07:00 +5°C° 0 mm 4 m/s 745 mmHg 77%
    08:00 +7°C° 0 mm 5 m/s 744 mmHg 72%
    09:00 +8°C° 0 mm 4 m/s 744 mmHg 68%
    10:00 +10°C° 0 mm 4 m/s 744 mmHg 64%
    11:00 +11°C° 0 mm 4 m/s 744 mmHg 60%
    12:00 +11°C° 0.9 mm 3 m/s 744 mmHg 64%
    13:00 +10°C° 0.9 mm 3 m/s 744 mmHg 68%
    14:00 +10°C° 0.9 mm 2 m/s 744 mmHg 72%
    15:00 +9°C° 0.7 mm 3 m/s 744 mmHg 76%
    16:00 +8°C° 0.7 mm 3 m/s 744 mmHg 79%
    17:00 +7°C° 0.7 mm 3 m/s 744 mmHg 82%
    18:00 +6°C° 0 mm 2 m/s 744 mmHg 83%
    19:00 +6°C° 0 mm 1 m/s 744 mmHg 84%
    20:00 +5°C° 0 mm 1 m/s 744 mmHg 85%
    21:00 +5°C° 0 mm 1 m/s 744 mmHg 84%
    22:00 +4°C° 0 mm 1 m/s 745 mmHg 83%
    23:00 +4°C° 0 mm 1 m/s 745 mmHg 82%

    Amanhã, 20 Abril, Sábado

    Tempo Temperatura Precipitação Vento Pressão Humidade
    00:00 +4°C° 0 mm 1 m/s 745 mmHg 81%
    01:00 +3°C° 0 mm 2 m/s 745 mmHg 80%
    02:00 +3°C° 0 mm 2 m/s 745 mmHg 79%
    03:00 +3°C° 0 mm 2 m/s 745 mmHg 80%
    04:00 +2°C° 0 mm 3 m/s 745 mmHg 82%
    05:00 +2°C° 0 mm 3 m/s 745 mmHg 83%
    06:00 +4°C° 0.2 mm 4 m/s 745 mmHg 79%
    07:00 +5°C° 0.2 mm 5 m/s 745 mmHg 75%
    08:00 +6°C° 0.2 mm 5 m/s 746 mmHg 71%
    09:00 +7°C° 0.1 mm 6 m/s 746 mmHg 64%
    10:00 +8°C° 0.1 mm 6 m/s 746 mmHg 57%
    11:00 +9°C° 0.1 mm 7 m/s 746 mmHg 51%
    12:00 +10°C° 0.1 mm 7 m/s 746 mmHg 50%
    13:00 +10°C° 0.1 mm 7 m/s 746 mmHg 49%
    14:00 +10°C° 0.1 mm 7 m/s 746 mmHg 48%
    15:00 +9°C° 0 mm 6 m/s 746 mmHg 51%
    16:00 +9°C° 0 mm 5 m/s 746 mmHg 54%
    17:00 +10°C° 0 mm 4 m/s 746 mmHg 58%
    18:00 +8°C° 0 mm 3 m/s 746 mmHg 61%
    19:00 +7°C° 0 mm 2 m/s 746 mmHg 64%
    20:00 +6°C° 0 mm 1 m/s 746 mmHg 67%
    21:00 +5°C° 0 mm 2 m/s 746 mmHg 67%
    22:00 +5°C° 0 mm 2 m/s 746 mmHg 67%
    23:00 +4°C° 0 mm 2 m/s 746 mmHg 67%

    Depois de amanhã, 21 Abril, Domingo

    Tempo Temperatura Precipitação Vento Pressão Humidade
    00:00 +4°C° 0 mm 2 m/s 745 mmHg 69%
    01:00 +4°C° 0 mm 2 m/s 745 mmHg 72%
    02:00 +2°C° 0 mm 3 m/s 745 mmHg 74%
    03:00 +2°C° 0 mm 3 m/s 745 mmHg 76%
    04:00 +2°C° 0 mm 3 m/s 745 mmHg 77%
    05:00 +2°C° 0 mm 3 m/s 745 mmHg 79%
    06:00 +3°C° 0 mm 3 m/s 745 mmHg 74%
    07:00 +5°C° 0 mm 3 m/s 745 mmHg 70%
    08:00 +8°C° 0 mm 3 m/s 746 mmHg 65%
    09:00 +9°C° 0 mm 3 m/s 746 mmHg 59%
    10:00 +10°C° 0 mm 3 m/s 746 mmHg 53%
    11:00 +12°C° 0 mm 3 m/s 745 mmHg 47%
    12:00 +12°C° 0 mm 3 m/s 745 mmHg 48%
    13:00 +12°C° 0 mm 3 m/s 745 mmHg 49%
    14:00 +13°C° 0 mm 2 m/s 745 mmHg 50%
    15:00 +11°C° 0 mm 3 m/s 745 mmHg 52%
    16:00 +11°C° 0 mm 3 m/s 744 mmHg 54%
    17:00 +11°C° 0 mm 3 m/s 744 mmHg 56%
    18:00 +9°C° 0 mm 3 m/s 744 mmHg 62%
    19:00 +7°C° 0 mm 2 m/s 744 mmHg 67%
    20:00 +5°C° 0 mm 2 m/s 745 mmHg 73%
    21:00 +5°C° 0 mm 2 m/s 745 mmHg 74%
    22:00 +5°C° 0 mm 1 m/s 745 mmHg 75%
    23:00 +4°C° 0 mm 1 m/s 745 mmHg 76%

    22 Abril, Segunda-feira

    Tempo Temperatura Precipitação Vento Pressão Humidade
    00:00 +4°C° 0 mm 1 m/s 745 mmHg 76%
    01:00 +4°C° 0 mm 1 m/s 745 mmHg 75%
    02:00 +3°C° 0 mm 0 m/s 745 mmHg 75%
    03:00 +4°C° 0 mm 1 m/s 744 mmHg 74%
    04:00 +3°C° 0 mm 1 m/s 744 mmHg 74%
    05:00 +3°C° 0 mm 1 m/s 744 mmHg 73%
    06:00 +4°C° 0 mm 2 m/s 745 mmHg 70%
    07:00 +6°C° 0 mm 2 m/s 745 mmHg 66%
    08:00 +8°C° 0 mm 3 m/s 746 mmHg 63%
    09:00 +9°C° 0 mm 3 m/s 746 mmHg 58%
    10:00 +11°C° 0 mm 3 m/s 746 mmHg 52%
    11:00 +12°C° 0 mm 4 m/s 746 mmHg 47%
    12:00 +12°C° 0 mm 4 m/s 746 mmHg 48%
    13:00 +12°C° 0 mm 4 m/s 746 mmHg 48%
    14:00 +13°C° 0 mm 4 m/s 746 mmHg 49%
    15:00 +12°C° 0 mm 4 m/s 746 mmHg 51%
    16:00 +12°C° 0 mm 4 m/s 745 mmHg 53%
    17:00 +11°C° 0 mm 4 m/s 745 mmHg 55%
    18:00 +8°C° 0 mm 4 m/s 746 mmHg 64%
    19:00 +7°C° 0 mm 3 m/s 746 mmHg 73%
    20:00 +5°C° 0 mm 2 m/s 746 mmHg 83%
    21:00 +5°C° 0 mm 2 m/s 746 mmHg 85%
    22:00 +4°C° 0 mm 2 m/s 746 mmHg 88%
    23:00 +4°C° 0 mm 2 m/s 746 mmHg 90%

    23 Abril, Terça-feira

    Tempo Temperatura Precipitação Vento Pressão Humidade
    00:00 +4°C° 0 mm 2 m/s 746 mmHg 90%
    01:00 +4°C° 0 mm 2 m/s 746 mmHg 89%
    02:00 +4°C° 0 mm 1 m/s 746 mmHg 89%
    03:00 +4°C° 0 mm 1 m/s 746 mmHg 88%
    04:00 +4°C° 0 mm 1 m/s 746 mmHg 88%
    05:00 +4°C° 0 mm 1 m/s 746 mmHg 87%
    06:00 +5°C° 0 mm 2 m/s 747 mmHg 82%
    07:00 +7°C° 0 mm 3 m/s 747 mmHg 76%
    08:00 +9°C° 0 mm 3 m/s 747 mmHg 71%
    09:00 +10°C° 0 mm 4 m/s 748 mmHg 66%
    10:00 +10°C° 0 mm 5 m/s 748 mmHg 61%
    11:00 +12°C° 0 mm 5 m/s 748 mmHg 56%
    12:00 +11°C° 0 mm 6 m/s 748 mmHg 56%
    13:00 +11°C° 0 mm 6 m/s 747 mmHg 56%
    14:00 +11°C° 0 mm 6 m/s 747 mmHg 56%
    15:00 +11°C° 0 mm 6 m/s 747 mmHg 59%
    16:00 +10°C° 0 mm 6 m/s 747 mmHg 63%
    17:00 +9°C° 0 mm 6 m/s 746 mmHg 66%
    18:00 +8°C° 0.2 mm 5 m/s 746 mmHg 71%
    19:00 +7°C° 0.2 mm 4 m/s 746 mmHg 75%
    20:00 +6°C° 0.2 mm 4 m/s 746 mmHg 79%
    21:00 +6°C° 0.1 mm 4 m/s 746 mmHg 81%
    22:00 +6°C° 0.1 mm 4 m/s 746 mmHg 83%
    23:00 +6°C° 0.1 mm 4 m/s 746 mmHg 85%

    24 Abril, Quarta-feira

    Tempo Temperatura Precipitação Vento Pressão Humidade
    00:00 +6°C° 0 mm 4 m/s 746 mmHg 87%
    01:00 +6°C° 0 mm 4 m/s 746 mmHg 88%
    02:00 +6°C° 0 mm 4 m/s 746 mmHg 90%
    03:00 +6°C° 0.1 mm 4 m/s 746 mmHg 90%
    04:00 +7°C° 0.1 mm 3 m/s 746 mmHg 91%
    05:00 +7°C° 0.1 mm 3 m/s 746 mmHg 91%
    06:00 +6°C° 0.1 mm 4 m/s 746 mmHg 89%
    07:00 +7°C° 0.1 mm 4 m/s 746 mmHg 87%
    08:00 +8°C° 0.1 mm 4 m/s 747 mmHg 86%
    09:00 +10°C° 0 mm 4 m/s 747 mmHg 79%
    10:00 +12°C° 0 mm 4 m/s 747 mmHg 71%
    11:00 +13°C° 0 mm 4 m/s 747 mmHg 64%
    12:00 +13°C° 0 mm 4 m/s 747 mmHg 63%
    13:00 +14°C° 0 mm 4 m/s 747 mmHg 62%
    14:00 +15°C° 0 mm 4 m/s 747 mmHg 61%
    15:00 +14°C° 0 mm 4 m/s 747 mmHg 64%
    16:00 +13°C° 0 mm 4 m/s 747 mmHg 66%
    17:00 +13°C° 0 mm 4 m/s 746 mmHg 69%
    18:00 +11°C° 0 mm 4 m/s 747 mmHg 77%
    19:00 +9°C° 0 mm 3 m/s 747 mmHg 86%
    20:00 +7°C° 0 mm 2 m/s 747 mmHg 94%
    21:00 +7°C° 0 mm 2 m/s 747 mmHg 95%
    22:00 +7°C° 0 mm 2 m/s 747 mmHg 96%
    23:00 +6°C° 0 mm 2 m/s 747 mmHg 97%
    Mostrar mais